Curtin Aero, Australia

3:31 PM AWST on March 23, 2017 (GMT +0800)
Curtin Aero

Weather History for 94204 - March, 2013

Change the Weather History Date:

Wednesday, March 20, 2013

  Actual Average Record
Temperature  
Mean Temperature 89 °F -  
Max Temperature 105 °F - - ()
Min Temperature 73 °F - - ()
Cooling Degree Days 24    
Growing Degree Days 39 (Base 50)    
Moisture  
Dew Point 66 °F    
Average Humidity 55    
Maximum Humidity 83    
Minimum Humidity 13    
Precipitation  
Precipitation 0.00 in - - ()
Sea Level Pressure  
Sea Level Pressure 29.83 in    
Wind  
Wind Speed 4 mph ()    
Max Wind Speed 9 mph    
Max Gust Speed -    
T = Trace of Precipitation, MM = Missing Value Source: Averaged Metar Reports

Daily Weather History Graph

Daily Weather History Graph

Search for Another Location

Airport or City:

Trip Planner

Search our weather history database for the weather conditions in past years. The results will help you decide how hot, cold, wet, or windy it might be!

Date:

Astronomy

Mar. 20, 2013 Rise Set
Actual Time 5:48 AM AWST 5:55 PM AWST
Civil Twilight 5:26 AM AWST 6:17 PM AWST
Nautical Twilight 5:01 AM AWST 6:42 PM AWST
Astronomical Twilight 4:36 AM AWST 7:07 PM AWST
Moon 12:39 PM AWST (3/20) No Moon Set
Length of Visible Light 12h 50m
Length of Day
12h 07m
First Quarter, 54% of the Moon is Illuminated
Mar 20
First Quarter
Mar 27
Full
Apr 3
Last Quarter
Apr 10
New
Apr 18
First Quarter

Hourly Weather History & Observations

Time (AWST) Temp. Heat Index Dew Point Humidity Pressure Visibility Wind Dir Wind Speed Gust Speed Precip Events Conditions
12:00 AM 75 °F - 69 °F 77% 29.82 in - SSW 4.6 mph - -  
12:00 AM 75.2 °F - 69.8 °F 83% 29.83 in - SSW 4.6 mph - N/A   Unknown
1:00 AM 75.2 °F - 69.8 °F 83% 29.83 in - South 4.6 mph - N/A   Unknown
2:00 AM 75.2 °F - 68.0 °F 78% 29.83 in - SSE 4.6 mph - N/A   Unknown
3:00 AM 75 °F - 70 °F 81% 29.81 in - SSE 4.6 mph - -  
3:00 AM 75.2 °F - 69.8 °F 83% 29.83 in - SSE 4.6 mph - N/A   Unknown
4:00 AM 75.2 °F - 69.8 °F 83% 29.83 in - SE 3.5 mph - N/A   Unknown
5:00 AM 77.0 °F - 69.8 °F 78% 29.86 in - SE 5.8 mph - N/A   Unknown
6:00 AM 75 °F - 69 °F 78% 29.87 in - SE 4.6 mph - -  
6:00 AM 75.2 °F - 69.8 °F 83% 29.86 in - SE 4.6 mph - N/A   Unknown
7:00 AM 82.4 °F 86.3 °F 69.8 °F 66% 29.89 in - SE 3.5 mph - N/A   Unknown
8:00 AM 91.4 °F 96.8 °F 69.8 °F 49% 29.92 in - SSE 1.2 mph - N/A   Unknown
9:00 AM 95 °F - 71 °F 36% 29.91 in - Calm Calm - -  
9:00 AM 95.0 °F 103.2 °F 71.6 °F 47% 29.92 in - Calm Calm - N/A   Unknown
10:00 AM 96.8 °F 101.8 °F 68.0 °F 39% 29.89 in - South 4.6 mph - N/A   Unknown
11:00 AM 100.4 °F 99.7 °F 57.2 °F 24% 29.86 in - SSW 2.3 mph - N/A   Unknown
12:00 PM 101 °F - 58 °F 15% 29.83 in - SSE 5.8 mph - -  
12:00 PM 100.4 °F 99.7 °F 57.2 °F 24% 29.83 in - SSE 5.8 mph - N/A   Unknown
1:00 PM 104.0 °F - 51.8 °F 17% 29.80 in - East 9.2 mph - N/A   Unknown
2:00 PM 104.0 °F 102.3 °F 53.6 °F 19% 29.80 in - NE 8.1 mph - N/A   Unknown
3:00 PM 103 °F - 55 °F 13% 29.77 in - ENE 8.1 mph - -  
3:00 PM 102.2 °F 100.9 °F 55.4 °F 21% 29.77 in - ENE 8.1 mph - N/A   Unknown
4:00 PM 100.4 °F 100.2 °F 59.0 °F 25% 29.77 in - East 3.5 mph - N/A   Unknown
5:00 PM 96.8 °F 101.8 °F 68.0 °F 39% 29.77 in - Calm Calm - N/A   Unknown
6:00 PM 89 °F - 70 °F 45% 29.78 in - Calm Calm - -  
6:00 PM 87.8 °F 92.6 °F 69.8 °F 55% 29.77 in - Calm Calm - N/A   Unknown
7:00 PM 84.2 °F 87.3 °F 68.0 °F 58% 29.80 in - Calm Calm - N/A   Unknown
8:00 PM 80.6 °F 83.2 °F 68.0 °F 65% 29.80 in - ENE 3.5 mph - N/A   Unknown
9:00 PM 79 °F - 69 °F 64% 29.81 in - SSW 4.6 mph - -  
9:00 PM 78.8 °F - 69.8 °F 74% 29.83 in - SSW 4.6 mph - N/A   Unknown
10:00 PM 77.0 °F - 69.8 °F 78% 29.80 in - SSE 4.6 mph - N/A   Unknown
11:00 PM 77.0 °F - 68.0 °F 74% 29.80 in - SE 3.5 mph - N/A   Unknown